Location: Colonia Mina de C?rbuni
(46.1667°N, 22.7167°E)
Time: 15:32:36
(UTC+00:00)

S-56A Canister/Altair - Pass Details

Date: 13 April 2024
Orbit: 638 x 2488 km, 38.9° (Epoch: 26 May)

Event Time Altitude Azimuth Distance (km) Brightness Sun altitude
Rises 22:52:36 0° 278° (W) 4,980 11.7 -34.1°
Reaches altitude 10° 22:55:56 10° 270° (W) 4,231 11.2 -34.0°
Enters shadow 22:59:52 23° 254° (WSW) 3,553 10.6 -33.9°
